Corona, CA

1:25 AM PDT on June 29, 2017 (GMT -0700)
Corona Municipal

Weather History for KAJO - October, 2013

Change the Weather History Date:

Sunday, October 13, 2013

  Actual Average (KCNO) Record (KCNO)
Temperature  
Mean Temperature 58 °F -  
Max Temperature 72 °F 80 °F 102 °F (2011)
Min Temperature 44 °F 48 °F 41 °F (2000)
Degree Days  
Heating Degree Days 7    
Growing Degree Days 8 (Base 50)    
Moisture  
Dew Point 50 °F    
Average Humidity 89    
Maximum Humidity 100    
Minimum Humidity 49    
Precipitation  
Precipitation 0.12 in - - ()
Sea Level Pressure  
Sea Level Pressure 29.96 in    
Wind  
Wind Speed 1 mph (WNW)    
Max Wind Speed 13 mph    
Max Gust Speed -    
Visibility 6 miles    
Events Fog    
Averages and records for this station are not official NWS values.
T = Trace of Precipitation, MM = Missing Value Source: NWS Daily Summary

Daily Weather History Graph

Daily Weather History Graph

Search for Another Location

Airport or City:

Trip Planner

Search our weather history database for the weather conditions in past years. The results will help you decide how hot, cold, wet, or windy it might be!

Date:

Astronomy

Oct. 13, 2013 Rise Set
Actual Time 6:54 AM PDT 6:18 PM PDT
Civil Twilight 6:28 AM PDT 6:43 PM PDT
Nautical Twilight 5:59 AM PDT 7:12 PM PDT
Astronomical Twilight 5:31 AM PDT 7:41 PM PDT
Moon 3:00 PM PDT (10/13) 1:23 AM PDT (10/13)
Length of Visible Light 12h 14m
Length of Day
11h 24m
Waxing Gibbous, 70% of the Moon is Illuminated
Oct 13
Waxing Gibbous
Oct 18
Full
Oct 26
Last Quarter
Nov 3
New
Nov 9
First Quarter

Hourly Weather History & Observations

Time (PDT) Temp. Dew Point Humidity Pressure Visibility Wind Dir Wind Speed Gust Speed Precip Events Conditions
12:15 AM 51.8 °F 51.8 °F 100% 29.96 in 2.0 mi Calm Calm - N/A   Clear
12:24 AM 51.8 °F 51.8 °F 100% 29.96 in 10.0 mi Calm Calm - N/A   Clear
12:56 AM 50.0 °F 50.0 °F 100% 29.95 in 10.0 mi Calm Calm - N/A   Clear
1:29 AM 46.4 °F 46.4 °F 100% 29.97 in 1.8 mi Calm Calm - 0.01 in   Clear
1:36 AM 46.4 °F 46.4 °F 100% 29.97 in 1.0 mi Calm Calm - 0.01 in   Clear
1:40 AM 48.2 °F 48.2 °F 100% 29.97 in 0.5 mi Calm Calm - 0.01 in Fog Fog
1:56 AM 48.9 °F 48.9 °F 100% 29.96 in 0.2 mi Calm Calm - 0.01 in Fog Fog
2:05 AM 50.0 °F 50.0 °F 100% 29.96 in 0.8 mi Calm Calm - N/A   Clear
2:07 AM 50.0 °F 50.0 °F 100% 29.96 in 2.5 mi Calm Calm - N/A   Clear
2:14 AM 48.2 °F 48.2 °F 100% 29.96 in 4.0 mi Calm Calm - N/A   Clear
2:17 AM 46.4 °F 46.4 °F 100% 29.96 in 1.8 mi Calm Calm - N/A   Clear
2:19 AM 46.4 °F 46.4 °F 100% 29.96 in 0.8 mi Calm Calm - N/A   Clear
2:23 AM 46.4 °F 46.4 °F 100% 29.96 in 0.2 mi Calm Calm - N/A Fog Fog
2:33 AM 44.6 °F 44.6 °F 100% 29.96 in 0.2 mi Calm Calm - N/A Fog Fog
2:47 AM 44.6 °F 44.6 °F 100% 29.95 in 0.2 mi Calm Calm - N/A Fog Fog
2:56 AM 45.0 °F 45.0 °F 100% 29.94 in 0.2 mi Calm Calm - N/A Fog Fog
3:08 AM 44.6 °F 44.6 °F 100% 29.95 in 0.2 mi Calm Calm - N/A Fog Fog
3:13 AM 46.4 °F 46.4 °F 100% 29.95 in 0.2 mi Calm Calm - N/A Fog Fog
3:17 AM 46.4 °F 46.4 °F 100% 29.95 in 0.5 mi Calm Calm - N/A Fog Fog
3:23 AM 46.4 °F 46.4 °F 100% 29.96 in 1.2 mi Calm Calm - N/A   Mostly Cloudy
3:25 AM 46.4 °F 46.4 °F 100% 29.96 in 2.5 mi Calm Calm - N/A   Mostly Cloudy
3:32 AM 46.4 °F 46.4 °F 100% 29.95 in 7.0 mi Calm Calm - N/A   Mostly Cloudy
3:56 AM 47.8 °F 47.8 °F 100% 29.94 in 1.2 mi Calm Calm - N/A   Overcast
4:01 AM 48.2 °F 48.2 °F 100% 29.95 in 2.0 mi Calm Calm - N/A   Overcast
4:14 AM 48.2 °F 48.2 °F 100% 29.95 in 5.0 mi Calm Calm - N/A   Overcast
4:56 AM 50.9 °F 50.9 °F 100% 29.95 in 6.0 mi Calm Calm - N/A   Overcast
5:56 AM 52.9 °F 52.9 °F 100% 29.96 in 10.0 mi Calm Calm - N/A   Overcast
6:56 AM 54.9 °F 54.9 °F 100% 29.96 in 10.0 mi Calm Calm - N/A   Overcast
7:56 AM 55.9 °F 55.9 °F 100% 29.98 in 10.0 mi Calm Calm - N/A   Overcast
8:56 AM 59.9 °F 50.9 °F 72% 29.99 in 10.0 mi SSE 4.6 mph - 0.09 in   Overcast
9:56 AM 63.0 °F 50.9 °F 65% 29.99 in 10.0 mi East 5.8 mph - 0.02 in   Scattered Clouds
10:56 AM 68.0 °F 50.9 °F 54% 29.99 in 10.0 mi Variable 3.5 mph - N/A   Clear
11:56 AM 68.0 °F 50.9 °F 54% 29.98 in 10.0 mi Variable 3.5 mph - N/A   Clear
12:56 PM 70.9 °F 50.9 °F 49% 29.96 in 10.0 mi WNW 10.4 mph - N/A   Clear
1:56 PM 70.9 °F 52.0 °F 51% 29.94 in 10.0 mi WNW 11.5 mph - N/A   Clear
2:56 PM 72.0 °F 52.0 °F 49% 29.93 in 10.0 mi WNW 12.7 mph - N/A   Clear
3:56 PM 70.9 °F 52.0 °F 51% 29.93 in 10.0 mi WNW 11.5 mph - N/A   Clear
4:56 PM 68.9 °F 52.9 °F 57% 29.94 in 10.0 mi West 12.7 mph - N/A   Clear
5:56 PM 64.9 °F 52.9 °F 65% 29.95 in 10.0 mi WNW 9.2 mph - N/A   Clear
6:56 PM 61.9 °F 52.9 °F 72% 29.97 in 10.0 mi WNW 9.2 mph - N/A   Clear
7:56 PM 59.9 °F 52.9 °F 78% 29.98 in 10.0 mi West 8.1 mph - N/A   Clear
8:56 PM 57.9 °F 52.9 °F 83% 30.00 in 10.0 mi NNW 3.5 mph - N/A   Clear
9:56 PM 54.9 °F 52.9 °F 93% 30.01 in 10.0 mi Calm Calm - N/A   Clear
10:56 PM 50.0 °F 50.0 °F 100% 30.03 in 10.0 mi Calm Calm - N/A   Clear
11:56 PM 50.9 °F 50.9 °F 100% 30.03 in 9.0 mi Calm Calm - N/A   Clear